When you browse on this site, cookies collect data to enhance your experience and personalize the content and advertising you see.
Visit our Privacy Policy to learn more. By continuing to use the site, you agree to this use of cookies and data.
  • In Belgium
  • List of Countries
  • For 7 days
  • Water Temperature
  • Weather Map
  • Weather Widgets
  • user-avatar
    Login

    Hourly Weather Nkongsamba

    Today, 7 June, Sunday

    Time Temperature Precipitation Wind Pressure Humidity
    00:00 +19°C° 0 mm 0 mps 686 mmHg 98%
    01:00 +19°C° 0 mm 0 mps 686 mmHg 98%
    02:00 +19°C° 0 mm 0 mps 686 mmHg 98%
    03:00 +19°C° 0 mm 0 mps 686 mmHg 98%
    04:00 +19°C° 0 mm 0 mps 686 mmHg 98%
    05:00 +19°C° 0 mm 0 mps 686 mmHg 98%
    06:00 +19°C° 0 mm 0 mps 686 mmHg 97%
    07:00 +20°C° 0 mm 0 mps 687 mmHg 97%
    08:00 +22°C° 0 mm 0 mps 687 mmHg 87%
    09:00 +24°C° 0 mm 0 mps 688 mmHg 78%
    10:00 +26°C° 0 mm 0 mps 689 mmHg 69%
    11:00 +27°C° 0.3 mm 0 mps 688 mmHg 67%
    12:00 +29°C° 0.3 mm 1 mps 687 mmHg 65%
    13:00 +30°C° 0.3 mm 1 mps 687 mmHg 63%
    14:00 +29°C° 1.3 mm 1 mps 686 mmHg 71%
    15:00 +28°C° 1.3 mm 1 mps 685 mmHg 79%
    16:00 +27°C° 1.3 mm 1 mps 685 mmHg 86%
    17:00 +25°C° 0.8 mm 1 mps 685 mmHg 90%
    18:00 +24°C° 0.8 mm 1 mps 685 mmHg 94%
    19:00 +23°C° 0.8 mm 1 mps 685 mmHg 97%
    20:00 +23°C° 1 mm 1 mps 685 mmHg 98%
    21:00 +20°C° 1 mm 0 mps 686 mmHg 98%
    22:00 +20°C° 1 mm 0 mps 686 mmHg 98%
    23:00 +20°C° 0.7 mm 0 mps 686 mmHg 98%

    Tomorrow, 8 June, Monday

    Time Temperature Precipitation Wind Pressure Humidity
    00:00 +20°C° 0.7 mm 0 mps 686 mmHg 98%
    01:00 +20°C° 0.7 mm 0 mps 686 mmHg 98%
    02:00 +20°C° 0.6 mm 0 mps 685 mmHg 98%
    03:00 +20°C° 0.6 mm 0 mps 685 mmHg 98%
    04:00 +19°C° 0.6 mm 0 mps 685 mmHg 98%
    05:00 +20°C° 0.6 mm 0 mps 685 mmHg 98%
    06:00 +20°C° 0.6 mm 0 mps 686 mmHg 98%
    07:00 +20°C° 0.6 mm 0 mps 686 mmHg 98%
    08:00 +21°C° 0.1 mm 0 mps 686 mmHg 95%
    09:00 +22°C° 0.1 mm 0 mps 686 mmHg 92%
    10:00 +23°C° 0.1 mm 0 mps 687 mmHg 88%
    11:00 +26°C° 0.1 mm 1 mps 687 mmHg 82%
    12:00 +27°C° 0.1 mm 1 mps 686 mmHg 75%
    13:00 +28°C° 0.1 mm 1 mps 686 mmHg 69%
    14:00 +27°C° 0.7 mm 1 mps 685 mmHg 75%
    15:00 +27°C° 0.7 mm 1 mps 685 mmHg 81%
    16:00 +26°C° 0.7 mm 1 mps 684 mmHg 86%
    17:00 +24°C° 1 mm 1 mps 684 mmHg 90%
    18:00 +23°C° 1 mm 1 mps 685 mmHg 94%
    19:00 +20°C° 1 mm 0 mps 685 mmHg 98%
    20:00 +20°C° 0.6 mm 0 mps 685 mmHg 98%
    21:00 +20°C° 0.6 mm 0 mps 685 mmHg 98%
    22:00 +20°C° 0.6 mm 0 mps 686 mmHg 98%
    23:00 +20°C° 0.4 mm 0 mps 686 mmHg 98%

    Day after tomorrow, 9 June, Tuesday

    Time Temperature Precipitation Wind Pressure Humidity
    00:00 +19°C° 0.4 mm 0 mps 685 mmHg 98%
    01:00 +19°C° 0.4 mm 0 mps 685 mmHg 98%
    02:00 +19°C° 0.1 mm 0 mps 685 mmHg 98%
    03:00 +19°C° 0.1 mm 0 mps 685 mmHg 98%
    04:00 +19°C° 0.1 mm 0 mps 685 mmHg 98%
    05:00 +19°C° 0.1 mm 0 mps 686 mmHg 98%
    06:00 +20°C° 0.1 mm 0 mps 686 mmHg 98%
    07:00 +20°C° 0.1 mm 0 mps 686 mmHg 97%
    08:00 +21°C° 0.1 mm 0 mps 687 mmHg 92%
    09:00 +24°C° 0.1 mm 1 mps 687 mmHg 86%
    10:00 +26°C° 0.1 mm 1 mps 688 mmHg 81%
    11:00 +26°C° 0.8 mm 1 mps 687 mmHg 82%
    12:00 +26°C° 0.8 mm 1 mps 687 mmHg 83%
    13:00 +26°C° 0.8 mm 1 mps 686 mmHg 84%
    14:00 +26°C° 1.3 mm 1 mps 686 mmHg 86%
    15:00 +25°C° 1.3 mm 1 mps 685 mmHg 89%
    16:00 +25°C° 1.3 mm 1 mps 685 mmHg 92%
    17:00 +24°C° 0.7 mm 1 mps 685 mmHg 94%
    18:00 +21°C° 0.7 mm 0 mps 685 mmHg 96%
    19:00 +20°C° 0.7 mm 0 mps 685 mmHg 98%
    20:00 +20°C° 0.1 mm 0 mps 686 mmHg 98%
    21:00 +19°C° 0.1 mm 0 mps 686 mmHg 99%
    22:00 +19°C° 0.1 mm 0 mps 686 mmHg 99%
    23:00 +19°C° 0.1 mm 0 mps 686 mmHg 98%

    10 June, Wednesday

    Time Temperature Precipitation Wind Pressure Humidity
    00:00 +19°C° 0.1 mm 0 mps 686 mmHg 98%
    01:00 +19°C° 0.1 mm 0 mps 686 mmHg 98%
    02:00 +19°C° 0.1 mm 0 mps 686 mmHg 98%
    03:00 +19°C° 0.1 mm 0 mps 686 mmHg 98%
    04:00 +19°C° 0.1 mm 0 mps 686 mmHg 98%
    05:00 +19°C° 0.3 mm 0 mps 686 mmHg 97%
    06:00 +19°C° 0.3 mm 0 mps 686 mmHg 97%
    07:00 +19°C° 0.3 mm 0 mps 686 mmHg 97%
    08:00 +21°C° 0.1 mm 0 mps 687 mmHg 91%
    09:00 +22°C° 0.1 mm 0 mps 688 mmHg 85%
    10:00 +24°C° 0.1 mm 0 mps 688 mmHg 78%
    11:00 +24°C° 0.7 mm 0 mps 688 mmHg 78%
    12:00 +27°C° 0.7 mm 1 mps 687 mmHg 77%
    13:00 +27°C° 0.7 mm 1 mps 687 mmHg 77%
    14:00 +27°C° 1.1 mm 1 mps 686 mmHg 81%
    15:00 +26°C° 1.1 mm 1 mps 686 mmHg 84%
    16:00 +26°C° 1.1 mm 1 mps 685 mmHg 88%
    17:00 +24°C° 0.8 mm 1 mps 685 mmHg 91%
    18:00 +23°C° 0.8 mm 1 mps 685 mmHg 95%
    19:00 +20°C° 0.8 mm 0 mps 685 mmHg 98%
    20:00 +20°C° 0.4 mm 0 mps 686 mmHg 98%
    21:00 +20°C° 0.4 mm 0 mps 686 mmHg 98%
    22:00 +20°C° 0.4 mm 0 mps 687 mmHg 99%
    23:00 +20°C° 1.8 mm 0 mps 687 mmHg 99%

    11 June, Thursday

    Time Temperature Precipitation Wind Pressure Humidity
    00:00 +22°C° 1.8 mm 1 mps 687 mmHg 99%
    01:00 +22°C° 1.8 mm 1 mps 686 mmHg 99%
    02:00 +21°C° 0.6 mm 1 mps 686 mmHg 99%
    03:00 +19°C° 0.6 mm 0 mps 686 mmHg 99%
    04:00 +19°C° 0.6 mm 0 mps 686 mmHg 99%
    05:00 +19°C° 0 mm 0 mps 686 mmHg 99%
    06:00 +20°C° 0 mm 0 mps 686 mmHg 98%
    07:00 +20°C° 0 mm 0 mps 687 mmHg 98%
    08:00 +21°C° 0.1 mm 0 mps 687 mmHg 93%
    09:00 +22°C° 0.1 mm 0 mps 687 mmHg 87%
    10:00 +24°C° 0.1 mm 0 mps 688 mmHg 82%
    11:00 +26°C° 0.8 mm 1 mps 687 mmHg 81%
    12:00 +27°C° 0.8 mm 1 mps 687 mmHg 79%
    13:00 +27°C° 0.8 mm 1 mps 687 mmHg 77%
    14:00 +26°C° 2 mm 1 mps 686 mmHg 82%
    15:00 +26°C° 2 mm 1 mps 685 mmHg 87%
    16:00 +25°C° 2 mm 1 mps 685 mmHg 92%
    17:00 +24°C° 1.1 mm 1 mps 685 mmHg 94%
    18:00 +23°C° 1.1 mm 1 mps 685 mmHg 96%
    19:00 +22°C° 1.1 mm 1 mps 685 mmHg 98%
    20:00 +20°C° 0.5 mm 0 mps 686 mmHg 98%
    21:00 +20°C° 0.5 mm 0 mps 686 mmHg 98%
    22:00 +20°C° 0.5 mm 0 mps 686 mmHg 98%
    23:00 +19°C° 0.5 mm 0 mps 686 mmHg 99%

    12 June, Friday

    Time Temperature Precipitation Wind Pressure Humidity
    00:00 +19°C° 0.5 mm 0 mps 686 mmHg 99%
    01:00 +19°C° 0.5 mm 0 mps 686 mmHg 99%
    02:00 +19°C° 0.4 mm 0 mps 685 mmHg 99%
    03:00 +19°C° 0.4 mm 0 mps 685 mmHg 99%
    04:00 +19°C° 0.4 mm 0 mps 685 mmHg 99%
    05:00 +19°C° 0.3 mm 0 mps 685 mmHg 99%
    06:00 +19°C° 0.3 mm 0 mps 686 mmHg 98%
    07:00 +19°C° 0.3 mm 0 mps 686 mmHg 98%
    08:00 +20°C° 0.2 mm 0 mps 686 mmHg 95%
    09:00 +21°C° 0.2 mm 0 mps 687 mmHg 91%
    10:00 +22°C° 0.2 mm 0 mps 687 mmHg 88%
    11:00 +25°C° 1.1 mm 1 mps 687 mmHg 87%
    12:00 +26°C° 1.1 mm 1 mps 686 mmHg 86%
    13:00 +26°C° 1.1 mm 1 mps 686 mmHg 86%
    14:00 +26°C° 1.6 mm 1 mps 685 mmHg 88%
    15:00 +25°C° 1.6 mm 1 mps 685 mmHg 90%
    16:00 +25°C° 1.6 mm 1 mps 684 mmHg 93%
    17:00 +24°C° 0.4 mm 1 mps 684 mmHg 95%
    18:00 +21°C° 0.4 mm 0 mps 685 mmHg 97%
    19:00 +20°C° 0.4 mm 0 mps 685 mmHg 99%
    20:00 +20°C° 0.3 mm 0 mps 685 mmHg 99%
    21:00 +20°C° 0.3 mm 0 mps 686 mmHg 99%
    22:00 +20°C° 0.3 mm 0 mps 686 mmHg 99%
    23:00 +19°C° 0 mm 0 mps 686 mmHg 99%
    Show more